Regional Weather Roundup
Issued by NWS

Home | Current Version | Previous Version | Graphics & Text | Print | Product List | Glossary On
Versions: 1 2 3 4 5 6 7 8 9 10 11 12 13 14 15 16 17 18 19 20 21 22 23 24 25 26 27 28
112
ASUS45 KCYS 211610
RWRWY

WYOMING REGIONAL WEATHER ROUNDUP
NATIONAL WEATHER SERVICE CHEYENNE WY
1000 AM MDT THU MAY 21 2015

NOTE:  "FAIR" INDICATES FEW OR NO CLOUDS BELOW 12,000 FEET
WITH NO SIGNIFICANT WEATHER AND/OR OBSTRUCTIONS TO VISIBILITY.

WYZ001-211700-
YELLOWSTONE NATIONAL PARK

CITY           SKY/WX    TMP DP  RH WIND       PRES   REMARKS
LK YELLOWSTONE   N/A     43  34  70 VRB3      30.17F
W YELLOWSTONE  NOT AVBL

$$
WYZ002>013-054>058-071-098>099-211700-
NORTHERN WYOMING

CITY           SKY/WX    TMP DP  RH WIND       PRES   REMARKS
JACKSON        MOSUNNY   48  39  71 CALM      30.12F
CODY           FAIR      50  43  76 E8        30.11F
GREYBULL       FAIR      54  37  52 SE10      30.11F
WORLAND        FAIR      53  37  54 NW3       30.11F
SHERIDAN       FAIR      53  40  61 VRB6      30.13F
BUFFALO          N/A    N/A N/A N/A MISG      30.14S
GILLETTE       FAIR      50  37  61 S18       30.18F
HULETT         FAIR      54  30  40 S6        30.22F
NEWCASTLE      FAIR      46  32  57 S9        30.24S

$$
WYZ014>020-022>026-101>103-211700-
CENTRAL WYOMING

CITY           SKY/WX    TMP DP  RH WIND       PRES   REMARKS
BIG PINEY      CLOUDY    45  36  70 CALM      30.16F
PINEDALE       FAIR      46  36  66 SE5       30.16F
DUBOIS         FAIR      45  34  65 CALM      30.14F
LANDER         FAIR      48  39  71 CALM      30.14F
RIVERTON       PTSUNNY   47  37  68 SW5       30.15F
CASPER         FAIR      48  37  65 E5        30.16F
DOUGLAS        PTSUNNY   48  39  71 S16       30.18F

$$
WYZ021-027>030-104>119-211700-
SOUTHERN WYOMING

CITY           SKY/WX    TMP DP  RH WIND       PRES   REMARKS
EVANSTON       PTSUNNY   45  40  82 NE16      30.11S
KEMMERER       CLOUDY    45  37  76 E8        30.14F
FORT BRIDGER   CLOUDY    43  43 100 SE5       30.16S FOG
ROCK SPRINGS   CLOUDY    43  39  86 E5        30.16R
DIXON          FAIR      55  39  56 CALM      30.14F
RAWLINS        CLOUDY    45  38  76 E8        30.17F
SARATOGA       FAIR      45  41  87 MISG      30.17F
LARAMIE        FAIR      47  37  68 S6        30.17F
CHEYENNE       CLOUDY    39  38  96 S12       30.21S WCI  32
TORRINGTON     CLOUDY    47  39  74 SE13      30.22F
PINE BLUFFS    CLOUDY    45  37  76 S14       30.23F

$$



USA.gov is the U.S. government's official web portal to all federal, state and local government web resources and services.